User: anonymous   Login
Location: Unspecified
(0.0000°N, 0.0000°E)
Time: 07:56:40
(UTC+02:00)
Language:

Cosmos 494 Rocket - Orbit

View from above orbital plane
View from above orbital plane
View from above satellite
View from above satellite

Ground track
Ground track

The orbit data is extracted from the following two-line orbital elements,

1 06061U 72043B   16150.63061082  .00000040  00000-0  20756-4 0  9996
2 06061  74.0549 168.5197 0019331  32.0987 328.1341 14.40459410303085
Epoch (UTC): 29 May 2016 15:08:04
Eccentricity: 0.0019331
inclination: 74.0549°
perigee height: 743 km
apogee height: 771 km
right ascension of ascending node: 168.5197°
argument of perigee: 32.0987°
revolutions per day: 14.40459410
mean anomaly at epoch: 328.1341°
orbit number at epoch: 30308

The dashed part of the orbit path shows where the satellite is in the earth's shadow,  

DLR